User: anonymous   Login
Location: Unspecified
(35.6961°N, 0.0000°E)
Time: 18:57:13
(UTC+00:00)
Language:

AAUSAT CUBESAT 2 - Orbit

View from above orbital plane
View from above orbital plane
View from above satellite
View from above satellite

Ground track
Ground track

The orbit data is extracted from the following two-line orbital elements,

1 32788U 08021F   20220.51811074 +.00000029 +00000-0 +75811-5 0  9990
2 32788 097.4918 222.7489 0010161 240.9472 119.0732 14.95110490666947
Epoch (UTC): 07 August 2020 12:26:04
Eccentricity: 0.0010161
inclination: 97.4918°
perigee height: 575 km
apogee height: 589 km
right ascension of ascending node: 222.7489°
argument of perigee: 240.9472°
revolutions per day: 14.95110490
mean anomaly at epoch: 119.0732°
orbit number at epoch: 66694

The dashed part of the orbit path shows where the satellite is in the earth's shadow,  

DLR